Showing default

OPS 4682 (SNAPSHOT), 1314

Orbit data source: Space-Track

OPS 4682 (SNAPSHOT), 1314 is an American payload satellite in LEO that was launched on Sat, 03 Apr 1965 UTC via an ATLAS SLV-3 AGENA D launch vehicle from the Air Force Western Test Range (AFWTR). Payload-class satellites include a variety of spacecraft equipped with specific instruments for various scientific and technological missions. These include communications satellites like Starlink; space stations such as the ISS; scientific satellites like the Hubble; Earth observation satellites from companies like Planet Labs, Umbra, and HawkEye 360; GPS; miniature CubeSats for education and research; and military/defense satellites.

Loading next visibility...
Identifier
1314, 1965-027A
Orbit
LEO
Country
Flag of USUS
Related business
Manufacturer
RCA/East Windsor
Mission
Spacecraft
Bus & Motor
SNAP 10 REACTOR, Unknown motor
Mass
2,386 kg wet, 422 kg dry
Launch date (UTC)
1965-04-03 (61 years ago)
Launch vehicle
ATLAS SLV-3 AGENA D
Launch site
Air Force Western Test Range (AFWTR)
Object type
Payload
Rocket body
Debris
Shape & HBR
Unknown shape, 2.3 m
Radar Cross Section
Large (>1 m²)

Expand to show TLE details & history
Last TLE update: 12 hours ago

TLE from 12 hours ago
0 OPS 4682 (SNAPSHOT)
1 01314U 65027A   25340.62482021  .00000038  00000-0  11176-3 0  9998
2 01314  90.2365   2.0464 0031946  74.0505  41.8606 12.91800755606168
Epoch: 2025-12-06T14:59Z
TLE epoch observation values (Epoch: 2025-12-06T14:59:44.466Z)
Latitude
63.92441°
Longitude
-118.05789°
Altitude
1,287.24 km
Speed
7.227 km/s
True Right ascension
12h 10m 06s
True Declination
63° 47' 52"
Sunlit
Object was in daylight at epoch
Visualization orbit readout
Latitude
Unknown
Longitude
Unknown
Altitude
Unknown
Speed
Unknown
Apparent Right ascension
Unknown
Apparent Declination
Unknown
Sunlit
N/A
Visualization observer readout
Local Sidereal Time
00:56:23
Azimuth
Unknown
Elevation
Unknown
Doppler factor
Unknown
Orbital elements
Apogee altitude
1,316.022 km
Perigee altitude
1,267.019 km
Semi-major axis
7,669.658 km
Eccentricity
0.00319
Inclination
90.2365°
RAAN
2.0464°
Arg. of periapsis
74.0505°
True anomaly
42.10562°
Mean anomaly
41.8606°
Eccentric anomaly
41.98304°
Mean motion
3.23131 °/min
Orbital period
111.41 mins
BSTAR
0.00011176
Loading maneuver chart data...
Computing Atmospheric mass density...
Loading historical data...
Loading historical data...
Loading historical data...
Loading historical data...
Loading historical data...
Loading historical data...
Loading historical data...

Documentation

Showing up to 5 results
|